timestamp,surface_pressure_avg,surface_temp_avg,battery_voltage,lat,long
2020-06-02 00:09:01+00:00,237.8747,8.37,12.57,47.84626,-54.09684
2020-06-02 00:19:01+00:00,234.0347,8.4,12.57,47.84626,-54.09684
2020-06-02 00:29:01+00:00,229.5048,8.49,12.57,47.84626,-54.09684
2020-06-02 00:39:01+00:00,223.3414,8.54,12.57,47.84626,-54.09684
2020-06-02 00:49:01+00:00,220.8031,8.58,12.57,47.84626,-54.09684
2020-06-02 00:59:01+00:00,219.6848,8.6,12.57,47.84626,-54.09684
2020-06-02 01:09:01+00:00,217.5481,8.6,12.57,47.84626,-54.09684
2020-06-02 01:19:01+00:00,212.6364,8.65,12.57,47.84626,-54.09684
2020-06-02 01:29:01+00:00,209.0381,8.65,12.57,47.84626,-54.09684
2020-06-02 01:39:01+00:00,205.6298,8.64,12.57,47.84626,-54.09684
2020-06-02 01:49:01+00:00,202.4031,8.68,12.57,47.84626,-54.09684
2020-06-02 01:59:01+00:00,201.1798,8.7,12.57,47.84626,-54.09684
2020-06-02 02:09:01+00:00,201.2881,8.7,12.57,47.84626,-54.09684
2020-06-02 02:19:01+00:00,202.0031,8.7,12.57,47.84626,-54.09684
2020-06-02 02:29:01+00:00,203.3198,8.7,12.57,47.84626,-54.09684
2020-06-02 02:39:01+00:00,204.4914,8.77,12.57,47.84626,-54.09684
2020-06-02 02:49:01+00:00,207.9231,8.71,12.57,47.84626,-54.09684
2020-06-02 02:59:01+00:00,209.9181,8.7,12.57,47.84626,-54.09684
2020-06-02 03:09:01+00:00,208.4065,8.78,12.57,47.84626,-54.09684
2020-06-02 03:19:01+00:00,208.1148,8.79,12.57,47.84626,-54.09684
2020-06-02 03:29:01+00:00,209.2632,8.7,12.57,47.84626,-54.09684
2020-06-02 03:39:01+00:00,211.6931,8.7,12.57,47.84626,-54.09684
2020-06-02 03:49:01+00:00,215.0331,8.7,12.57,47.84626,-54.09684
2020-06-02 03:59:01+00:00,219.3581,8.7,12.57,47.84626,-54.09684
2020-06-02 04:09:01+00:00,222.6181,8.7,12.57,47.84626,-54.09684
2020-06-02 04:19:01+00:00,228.3198,8.7,12.57,47.84626,-54.09684
2020-06-02 04:29:01+00:00,230.5931,8.7,12.57,47.84626,-54.09684
2020-06-02 04:39:01+00:00,231.8565,8.7,12.57,47.84626,-54.09684
2020-06-02 04:49:01+00:00,234.2431,8.7,12.57,47.84626,-54.09684
2020-06-02 04:59:01+00:00,238.0765,8.7,12.57,47.84626,-54.09684
2020-06-02 05:09:01+00:00,239.9114,8.7,12.57,47.84626,-54.09684
2020-06-02 05:19:01+00:00,246.8181,8.69,12.57,47.84626,-54.09684
2020-06-02 05:29:01+00:00,257.1198,8.7,12.57,47.84626,-54.09684
2020-06-02 05:39:01+00:00,265.2147,8.7,12.57,47.84626,-54.09684
2020-06-02 05:49:01+00:00,269.073,8.79,12.57,47.84626,-54.09684
2020-06-02 05:59:01+00:00,278.7513,8.7,12.57,47.84626,-54.09684
2020-06-02 06:09:01+00:00,289.1747,8.7,12.57,47.84626,-54.09684
2020-06-02 06:19:01+00:00,297.4164,8.7,12.57,47.84626,-54.09684
2020-06-02 06:29:01+00:00,300.578,8.7,12.57,47.84626,-54.09684
2020-06-02 06:39:01+00:00,307.7864,8.7,12.57,47.84626,-54.09684
2020-06-02 06:49:01+00:00,313.5897,8.7,12.57,47.84626,-54.09684
2020-06-02 06:59:01+00:00,317.2663,8.8,12.57,47.84626,-54.09684
2020-06-02 07:09:01+00:00,322.7196,8.8,12.57,47.84626,-54.09684
2020-06-02 07:19:01+00:00,329.1597,8.8,12.57,47.84626,-54.09684
2020-06-02 07:29:01+00:00,333.6346,8.8,12.57,47.84626,-54.09684
2020-06-02 07:39:01+00:00,340.5164,8.8,12.57,47.84626,-54.09684
2020-06-02 07:49:01+00:00,344.9547,8.8,12.57,47.84626,-54.09684
2020-06-02 07:59:01+00:00,344.9363,8.8,12.57,47.84626,-54.09684
2020-06-02 08:09:01+00:00,342.5329,8.8,12.57,47.84626,-54.09684
2020-06-02 08:19:01+00:00,342.8179,8.8,12.57,47.84626,-54.09684
2020-06-02 08:29:01+00:00,342.76800000000014,8.8,12.57,47.84626,-54.09684
2020-06-02 08:39:01+00:00,344.2347,8.8,12.57,47.84626,-54.09684
2020-06-02 08:49:01+00:00,342.6280000000001,8.8,12.57,47.84626,-54.09684
2020-06-02 08:59:01+00:00,344.5013,8.8,12.57,47.84626,-54.09684
2020-06-02 09:09:01+00:00,345.3063,8.8,12.57,47.84626,-54.09684
2020-06-02 09:19:01+00:00,343.3513,8.84,12.57,47.84626,-54.09684
2020-06-02 09:29:01+00:00,341.5847,8.84,12.57,47.84626,-54.09684
2020-06-02 09:39:01+00:00,341.0462,8.86,12.57,47.84626,-54.09684
2020-06-02 09:49:01+00:00,337.4464,8.88,12.57,47.84626,-54.09684
2020-06-02 09:59:01+00:00,332.5730000000001,8.87,12.57,47.84626,-54.09684
2020-06-02 10:09:01+00:00,330.5446,8.85,12.57,47.84626,-54.09684
2020-06-02 10:19:01+00:00,327.1846,8.88,12.65,47.84626,-54.09684
2020-06-02 10:29:01+00:00,319.5814,8.9,12.65,47.84626,-54.09684
2020-06-02 10:39:01+00:00,314.598,8.9,12.65,47.84626,-54.09684
2020-06-02 10:49:01+00:00,312.0913,8.9,12.65,47.84626,-54.09684
2020-06-02 10:59:01+00:00,306.83299999999997,8.9,12.65,47.84626,-54.09684
2020-06-02 11:09:01+00:00,297.748,8.99,12.65,47.84626,-54.09684
2020-06-02 11:19:01+00:00,289.168,9.0,12.65,47.84626,-54.09684
2020-06-02 11:29:01+00:00,281.0114,9.06,12.65,47.84626,-54.09684
2020-06-02 11:39:01+00:00,272.5147,9.1,12.65,47.84626,-54.09684
2020-06-02 11:49:01+00:00,268.0731,9.2,12.65,47.84626,-54.09684
2020-06-02 11:59:01+00:00,260.5414,9.2,12.65,47.84626,-54.09684
2020-06-02 12:09:01+00:00,251.5214,9.2,12.65,47.84626,-54.09684
2020-06-02 12:19:01+00:00,243.8814,9.2,12.73,47.84626,-54.09684
2020-06-02 12:29:01+00:00,239.7014,9.2,12.73,47.84626,-54.09684
2020-06-02 12:39:01+00:00,229.8981,9.2,12.73,47.84626,-54.09684
2020-06-02 12:49:01+00:00,221.9347,9.22,12.73,47.84626,-54.09684
2020-06-02 12:59:01+00:00,219.7198,9.2,12.73,47.84626,-54.09684
2020-06-02 13:09:01+00:00,220.4498,9.16,12.73,47.84626,-54.09684
2020-06-02 13:19:01+00:00,217.0181,9.17,12.89,47.84626,-54.09684
2020-06-02 13:29:01+00:00,210.4331,9.29,12.89,47.84626,-54.09684
2020-06-02 13:39:01+00:00,207.4798,9.3,12.89,47.84626,-54.09684
2020-06-02 13:49:01+00:00,206.9598,9.2,12.89,47.84626,-54.09684
2020-06-02 13:59:01+00:00,203.7015,9.2,12.89,47.84626,-54.09684
2020-06-02 14:09:01+00:00,203.4648,9.2,12.89,47.84626,-54.09684
2020-06-02 14:19:01+00:00,203.6032,9.2,12.89,47.84626,-54.09684
2020-06-02 14:29:01+00:00,199.0164,9.35,12.89,47.84626,-54.09684
2020-06-02 14:39:01+00:00,195.0798,9.75,12.89,47.84626,-54.09684
2020-06-02 14:49:01+00:00,197.5248,9.9,12.89,47.84626,-54.09684
2020-06-02 14:59:01+00:00,201.9548,9.83,12.89,47.84626,-54.09684
2020-06-02 15:09:01+00:00,203.3914,9.8,12.89,47.84626,-54.09684
2020-06-02 15:19:01+00:00,201.1731,9.6,12.89,47.84626,-54.09684
2020-06-02 15:29:01+00:00,203.5064,9.47,12.89,47.84626,-54.09684
2020-06-02 15:39:01+00:00,208.8048,9.47,12.89,47.84626,-54.09684
2020-06-02 15:49:01+00:00,212.5147,9.5,12.89,47.84626,-54.09684
2020-06-02 15:59:01+00:00,215.1548,9.4,12.89,47.84626,-54.09684
2020-06-02 16:09:01+00:00,215.7648,9.4,12.89,47.84626,-54.09684
2020-06-02 16:19:01+00:00,216.9015,9.4,13.13,47.84626,-54.09684
2020-06-02 16:29:01+00:00,224.0247,9.3,13.13,47.84626,-54.09684
2020-06-02 16:39:01+00:00,225.9698,9.3,13.13,47.84626,-54.09684
2020-06-02 16:49:01+00:00,226.6248,9.38,13.13,47.84626,-54.09684
2020-06-02 16:59:01+00:00,234.2631,9.4,13.13,47.84626,-54.09684
2020-06-02 17:09:01+00:00,241.9381,9.38,13.13,47.84626,-54.09684
2020-06-02 17:19:01+00:00,244.1864,9.4,13.05,47.84626,-54.09684
2020-06-02 17:29:01+00:00,252.5198,9.18,13.05,47.84626,-54.09684
2020-06-02 17:39:01+00:00,266.1114,9.1,13.05,47.84626,-54.09684
2020-06-02 17:49:01+00:00,269.5864,9.1,13.05,47.84626,-54.09684
2020-06-02 17:59:01+00:00,272.5398,9.1,13.05,47.84626,-54.09684
2020-06-02 18:09:01+00:00,283.2331,9.1,13.05,47.84626,-54.09684
2020-06-02 18:19:01+00:00,292.5197,9.11,12.97,47.84626,-54.09684
2020-06-02 18:29:01+00:00,292.5331,9.1,12.97,47.84626,-54.09684
2020-06-02 18:39:01+00:00,299.828,9.11,12.97,47.84626,-54.09684
2020-06-02 18:49:01+00:00,315.3196,9.1,12.97,47.84626,-54.09684
2020-06-02 18:59:01+00:00,324.7029,9.1,12.97,47.84626,-54.09684
2020-06-02 19:09:01+00:00,324.7346,9.1,12.97,47.84626,-54.09684
2020-06-02 19:19:01+00:00,335.8047,9.1,12.89,47.84626,-54.09684
2020-06-02 19:29:01+00:00,347.1512,9.1,12.89,47.84626,-54.09684
2020-06-02 19:39:01+00:00,347.4429,9.1,12.89,47.84626,-54.09684
2020-06-02 19:49:01+00:00,348.82300000000015,9.1,12.89,47.84626,-54.09684
2020-06-02 19:59:01+00:00,358.4446,9.1,12.89,47.84626,-54.09684
2020-06-02 20:09:01+00:00,358.0029,9.1,12.89,47.84626,-54.09684
2020-06-02 20:19:01+00:00,353.1213,9.1,12.81,47.84626,-54.09684
2020-06-02 20:29:01+00:00,357.87800000000016,9.1,12.81,47.84626,-54.09684
2020-06-02 20:39:01+00:00,363.1546,9.1,12.81,47.84626,-54.09684
2020-06-02 20:49:01+00:00,361.6931,9.1,12.81,47.84626,-54.09684
2020-06-02 20:59:01+00:00,353.94300000000015,9.1,12.81,47.84626,-54.09684
2020-06-02 21:09:01+00:00,355.8514,9.1,12.81,47.84626,-54.09684
2020-06-02 21:19:01+00:00,355.8963,9.1,12.73,47.84626,-54.09684
2020-06-02 21:29:01+00:00,362.3713,9.1,12.73,47.84626,-54.09684
2020-06-02 21:39:01+00:00,359.2379,9.1,12.73,47.84626,-54.09684
2020-06-02 21:49:01+00:00,351.8864,9.1,12.73,47.84626,-54.09684
2020-06-02 21:59:01+00:00,349.1613,9.1,12.73,47.84626,-54.09684
2020-06-02 22:09:01+00:00,351.083,9.05,12.73,47.84626,-54.09684
2020-06-02 22:19:01+00:00,348.0662,9.06,12.65,47.84626,-54.09684
2020-06-02 22:29:01+00:00,334.9414,9.1,12.65,47.84626,-54.09684
2020-06-02 22:39:01+00:00,327.7396,9.09,12.65,47.84626,-54.09684
2020-06-02 22:49:01+00:00,333.4312,9.09,12.65,47.84626,-54.09684
2020-06-02 22:59:01+00:00,321.5664,9.1,12.65,47.84626,-54.09684
2020-06-02 23:09:01+00:00,317.5114,9.3,12.65,47.84626,-54.09684
2020-06-02 23:19:01+00:00,310.568,9.2,12.65,47.84626,-54.09684
2020-06-02 23:29:01+00:00,307.2414,9.26,12.65,47.84626,-54.09684
2020-06-02 23:39:01+00:00,293.363,9.29,12.65,47.84626,-54.09684
2020-06-02 23:49:01+00:00,288.1813,9.2,12.65,47.84626,-54.09684
2020-06-02 23:59:01+00:00,280.9131,9.1,12.65,47.84626,-54.09684
